This is the latest recevied weather packets stored in our database for station/object K0VSC-1. If no packets are shown the sender has not sent any weather packets the latest 10 day(s).
| Time | Temp. | Humidity | Pressure | Rain* | Wind** | Luminosity | Snow |
|---|---|---|---|---|---|---|---|
| 1777592597 | 8.33° C | 52% | 1016.8 hPa | 0 mm | - | 62 W/m² | - |
| 1777592297 | 7.78° C | 52% | 1016.7 hPa | 0 mm | - | 65 W/m² | - |
| 1777591997 | 8.33° C | 53% | 1016.8 hPa | 0 mm | - | 58 W/m² | - |
| 1777591697 | 7.78° C | 51% | 1016.7 hPa | 0 mm | - | 58 W/m² | - |
| 1777591397 | 8.33° C | 51% | 1016.7 hPa | 0 mm | - | 63 W/m² | - |
| 1777591097 | 8.33° C | 53% | 1016.7 hPa | 0 mm | - | 77 W/m² | - |
| 1777590797 | 8.33° C | 51% | 1016.7 hPa | 0 mm | - | 79 W/m² | - |
| 1777590497 | 8.33° C | 52% | 1016.7 hPa | 0 mm | - | 58 W/m² | - |
| 1777590197 | 8.33° C | 51% | 1016.8 hPa | 0 mm | - | 44 W/m² | - |
| 1777589897 | 8.33° C | 52% | 1016.8 hPa | 0 mm | - | 40 W/m² | - |
| 1777589597 | 8.33° C | 53% | 1016.8 hPa | 0 mm | - | 39 W/m² | - |
| 1777589297 | 8.33° C | 50% | 1016.8 hPa | 0 mm | - | 39 W/m² | - |
| 1777588997 | 8.33° C | 51% | 1016.9 hPa | 0 mm | - | 49 W/m² | - |
| 1777588697 | 8.33° C | 53% | 1016.9 hPa | 0 mm | - | 58 W/m² | - |
| 1777588397 | 8.33° C | 52% | 1016.8 hPa | 0 mm | - | 90 W/m² | - |
| 1777588098 | 8.33° C | 49% | 1016.8 hPa | 0 mm | - | 113 W/m² | - |
| 1777587798 | 8.89° C | 51% | 1016.8 hPa | 0 mm | - | 151 W/m² | - |
| 1777587497 | 8.33° C | 52% | 1016.8 hPa | 0 mm | - | 141 W/m² | - |
| 1777587198 | 8.33° C | 50% | 1016.8 hPa | 0 mm | - | 193 W/m² | - |
| 1777586898 | 8.89° C | 50% | 1016.8 hPa | 0 mm | - | 216 W/m² | - |
| 1777586597 | 8.89° C | 50% | 1016.8 hPa | 0 mm | - | 236 W/m² | - |
| 1777586298 | 8.33° C | 53% | 1016.9 hPa | 0 mm | - | 279 W/m² | - |
| 1777585998 | 8.33° C | 50% | 1016.9 hPa | 0 mm | - | 232 W/m² | - |
| 1777585698 | 8.33° C | 50% | 1017 hPa | 0 mm | - | 190 W/m² | - |
| 1777585398 | 8.33° C | 51% | 1017.1 hPa | 0 mm | - | 179 W/m² | - |
* Rain latest hour (hover to see other rain measurements)
** Current wind speed in m/s (hover to see current wind gust speed)